Weather History for KLDM - February, 2014

Change the Weather History Date:

Thursday, February 13, 2014

  Actual Average Record
Temperature  
Mean Temperature 22 °F -  
Max Temperature 29 °F 31 °F 52 °F (1984)
Min Temperature 14 °F 15 °F -5 °F (1979)
Degree Days  
Heating Degree Days 44    
Moisture  
Dew Point 15 °F    
Average Humidity 74    
Maximum Humidity 93    
Minimum Humidity 34    
Precipitation  
Precipitation 0.00 in - - ()
Sea Level Pressure  
Sea Level Pressure 29.74 in    
Wind  
Wind Speed 6 mph (SSE)    
Max Wind Speed 17 mph    
Max Gust Speed 23 mph    
Visibility 8 miles    
Events Snow    
Averages and records for this station are not official NWS values.
T = Trace of Precipitation, MM = Missing Value Source: NWS Daily Summary

Daily Weather History Graph

Daily Weather History Graph

Search for Another Location

Airport or City:

Trip Planner

Search our weather history database for the weather conditions in past years. The results will help you decide how hot, cold, wet, or windy it might be!

Date:

Astronomy

Feb. 13, 2014 Rise Set
Actual Time 7:47 AM EST 6:12 PM EST
Civil Twilight 7:17 AM EST 6:42 PM EST
Nautical Twilight 6:44 AM EST 7:16 PM EST
Astronomical Twilight 6:10 AM EST 7:49 PM EST
Moon 5:20 PM EST (2/13) 6:41 AM EST (2/13)
Length of Visible Light 11h 24m
Length of Day
10h 25m
Waxing Gibbous, 98% of the Moon is Illuminated
Feb 13
Waxing Gibbous
Feb 14
Full
Feb 22
Last Quarter
Mar 1
New
Mar 8
First Quarter

Hourly Weather History & Observations

Time (EST) Temp. Windchill Dew Point Humidity Pressure Visibility Wind Dir Wind Speed Gust Speed Precip Events Conditions
12:15 AM 19.4 °F 14.3 °F 16.2 °F 87% 30.03 in 10.0 mi SE 3.5 mph - N/A   Overcast
12:34 AM 19.4 °F 12.8 °F 15.8 °F 86% 30.02 in 10.0 mi SE 4.6 mph - N/A   Overcast
12:55 AM 19.4 °F - 15.8 °F 86% 30.02 in 10.0 mi Calm Calm - N/A   Overcast
1:14 AM 19.4 °F - 15.8 °F 86% 30.01 in 10.0 mi Calm Calm - N/A   Overcast
1:34 AM 19.4 °F - 15.8 °F 86% 30.01 in 10.0 mi Calm Calm - N/A   Overcast
1:55 AM 19.4 °F 14.3 °F 15.6 °F 85% 29.99 in 10.0 mi SE 3.5 mph - N/A   Overcast
2:14 AM 19.4 °F 14.3 °F 15.4 °F 85% 29.99 in 10.0 mi SE 3.5 mph - N/A   Overcast
2:34 AM 16.7 °F 11.2 °F 12.9 °F 85% 29.97 in 10.0 mi SE 3.5 mph - N/A   Mostly Cloudy
2:55 AM 16.7 °F 8.3 °F 12.7 °F 84% 29.97 in 10.0 mi SE 5.8 mph - N/A   Mostly Cloudy
3:14 AM 15.8 °F 7.2 °F 11.5 °F 83% 29.96 in 10.0 mi SE 5.8 mph - N/A   Scattered Clouds
3:35 AM 14.7 °F 5.9 °F 10.0 °F 82% 29.95 in 10.0 mi SE 5.8 mph - N/A   Clear
3:55 AM 16.7 °F 9.6 °F 11.1 °F 79% 29.95 in 10.0 mi SE 4.6 mph - N/A   Mostly Cloudy
4:14 AM 16.7 °F 9.6 °F 10.8 °F 77% 29.95 in 10.0 mi SE 4.6 mph - N/A   Overcast
4:35 AM 16.7 °F 9.6 °F 10.4 °F 76% 29.95 in 10.0 mi ESE 4.6 mph - N/A   Overcast
4:55 AM 17.1 °F 11.7 °F 10.2 °F 75% 29.95 in 10.0 mi SE 3.5 mph - N/A   Overcast
5:14 AM 17.4 °F 10.4 °F 10.4 °F 74% 29.95 in 10.0 mi ESE 4.6 mph - N/A   Overcast
5:35 AM 19.4 °F 14.3 °F 12.0 °F 73% 29.94 in 10.0 mi SE 3.5 mph - N/A   Overcast
5:55 AM 19.4 °F 12.8 °F 11.8 °F 72% 29.93 in 10.0 mi SSE 4.6 mph - N/A   Overcast
6:14 AM 19.4 °F 11.5 °F 11.3 °F 71% 29.93 in 10.0 mi SSE 5.8 mph - N/A   Overcast
6:35 AM 19.4 °F 11.5 °F 11.3 °F 71% 29.92 in 10.0 mi SE 5.8 mph - N/A   Overcast
6:54 AM 19.4 °F 10.4 °F 11.1 °F 70% 29.92 in 10.0 mi SSE 6.9 mph - N/A   Overcast
7:15 AM 19.4 °F 10.4 °F 10.4 °F 68% 29.91 in 10.0 mi SE 6.9 mph - N/A   Overcast
7:35 AM 19.4 °F 10.4 °F 10.6 °F 69% 29.90 in 10.0 mi SE 6.9 mph - N/A   Overcast
7:54 AM 19.4 °F 9.5 °F 10.4 °F 68% 29.89 in 10.0 mi SE 8.1 mph - N/A   Overcast
8:15 AM 19.9 °F 12.1 °F 10.4 °F 67% 29.89 in 10.0 mi SE 5.8 mph - N/A   Overcast
8:35 AM 19.9 °F 11.1 °F 10.4 °F 67% 29.87 in 10.0 mi SE 6.9 mph - N/A   Overcast
8:54 AM 20.7 °F 13.0 °F 10.8 °F 66% 29.87 in 10.0 mi SSE 5.8 mph - N/A   Overcast
9:15 AM 20.7 °F 9.5 °F 10.6 °F 65% 29.83 in 10.0 mi SE 10.4 mph - N/A   Overcast
9:35 AM 20.7 °F 9.5 °F 9.1 °F 61% 29.82 in 10.0 mi SE 10.4 mph - N/A   Overcast
9:54 AM 21.7 °F 13.2 °F 9.7 °F 60% 29.82 in 10.0 mi SSE 6.9 mph - N/A   Overcast
10:15 AM 21.9 °F 12.5 °F 8.1 °F 55% 29.81 in 10.0 mi SSE 8.1 mph - N/A   Overcast
10:34 AM 22.5 °F 15.1 °F 7.9 °F 54% 29.79 in 10.0 mi SSE 5.8 mph - N/A   Overcast
10:55 AM 23.2 °F 12.6 °F 7.2 °F 50% 29.78 in 10.0 mi SSE 10.4 mph - N/A   Overcast
11:15 AM 24.4 °F 16.5 °F 7.5 °F 49% 29.77 in 10.0 mi SSE 6.9 mph - N/A   Overcast
11:34 AM 25.5 °F 16.2 °F 7.9 °F 47% 29.76 in 10.0 mi SSE 9.2 mph - N/A   Overcast
11:55 AM 27.0 °F 18.0 °F 8.4 °F 46% 29.76 in 10.0 mi SSE 9.2 mph 16.1 mph N/A   Overcast
12:15 PM 27.0 °F 15.2 °F 7.3 °F 44% 29.74 in 10.0 mi South 15.0 mph 20.7 mph N/A   Overcast
12:34 PM 28.0 °F 19.3 °F 8.2 °F 43% 29.73 in 10.0 mi SSE 9.2 mph 17.3 mph N/A   Overcast
12:55 PM 29.3 °F 20.2 °F 9.5 °F 44% 29.72 in 10.0 mi South 10.4 mph 16.1 mph N/A   Overcast
1:15 PM 29.3 °F 18.6 °F 7.9 °F 41% 29.70 in 10.0 mi South 13.8 mph 20.7 mph N/A   Overcast
1:34 PM 29.3 °F 19.1 °F 7.3 °F 40% 29.69 in 10.0 mi South 12.7 mph 19.6 mph N/A   Overcast
1:55 PM 29.3 °F 19.6 °F 5.4 °F 36% 29.67 in 10.0 mi South 11.5 mph 20.7 mph N/A   Overcast
2:34 PM 29.3 °F 17.3 °F 3.7 °F 34% 29.64 in 10.0 mi South 17.3 mph 23.0 mph N/A   Overcast
2:55 PM 26.6 °F 13.8 °F 15.6 °F 63% 29.63 in 2.0 mi South 17.3 mph 23.0 mph N/A Snow Light Snow
3:15 PM 24.4 °F 14.2 °F 20.5 °F 85% 29.62 in 0.5 mi South 10.4 mph - N/A Snow Light Snow
3:34 PM 23.5 °F 10.8 °F 20.3 °F 87% 29.61 in 1.0 mi South 15.0 mph - N/A Snow Light Snow
3:55 PM 23.5 °F 13.0 °F 20.1 °F 87% 29.60 in 1.0 mi South 10.4 mph - N/A Snow Light Snow
4:15 PM 23.0 °F 12.4 °F 20.1 °F 89% 29.59 in 0.8 mi South 10.4 mph - N/A Snow Light Snow
4:35 PM 23.0 °F 13.1 °F 20.1 °F 89% 29.57 in 1.5 mi SSE 9.2 mph 16.1 mph N/A Snow Light Snow
4:55 PM 23.0 °F 12.4 °F 19.8 °F 87% 29.56 in 10.0 mi SSE 10.4 mph 18.4 mph N/A   Overcast
5:14 PM 23.9 °F 12.9 °F 20.1 °F 85% 29.55 in 10.0 mi SSE 11.5 mph 18.4 mph N/A   Overcast
5:35 PM 23.0 °F 12.4 °F 19.2 °F 85% 29.54 in 7.0 mi SSE 10.4 mph 17.3 mph N/A   Overcast
5:55 PM 24.3 °F 12.7 °F 19.9 °F 84% 29.54 in 10.0 mi SSE 12.7 mph 18.4 mph N/A   Overcast
6:15 PM 24.4 °F 14.9 °F 19.9 °F 83% 29.54 in 10.0 mi South 9.2 mph - N/A   Overcast
6:35 PM 24.4 °F 14.2 °F 19.9 °F 83% 29.54 in 10.0 mi SSE 10.4 mph - N/A   Overcast
6:54 PM 24.4 °F 14.9 °F 19.9 °F 83% 29.54 in 10.0 mi South 9.2 mph - N/A   Overcast
7:15 PM 24.4 °F 14.2 °F 20.1 °F 84% 29.53 in 10.0 mi SSE 10.4 mph - N/A   Overcast
7:35 PM 24.4 °F 16.5 °F 19.9 °F 83% 29.53 in 10.0 mi SSE 6.9 mph - N/A   Overcast
7:54 PM 24.4 °F 16.5 °F 19.9 °F 83% 29.52 in 10.0 mi SSE 6.9 mph - N/A   Overcast
8:15 PM 24.4 °F 15.6 °F 20.3 °F 84% 29.51 in 7.0 mi SSE 8.1 mph - N/A   Overcast
8:35 PM 24.4 °F 16.5 °F 20.3 °F 84% 29.50 in 7.0 mi SSE 6.9 mph - N/A   Overcast
8:54 PM 24.4 °F 17.5 °F 21.0 °F 87% 29.49 in 5.0 mi SSE 5.8 mph - N/A   Overcast
9:15 PM 24.4 °F 16.5 °F 21.6 °F 89% 29.49 in 5.0 mi SSE 6.9 mph - N/A   Overcast
9:35 PM 24.4 °F 17.5 °F 21.9 °F 90% 29.48 in 5.0 mi SSE 5.8 mph - N/A   Overcast
9:54 PM 24.4 °F 18.6 °F 22.1 °F 91% 29.48 in 3.0 mi SSE 4.6 mph - N/A   Overcast
10:15 PM 24.4 °F 18.6 °F 22.1 °F 91% 29.47 in 3.0 mi SE 4.6 mph - N/A Snow Light Snow
10:35 PM 24.4 °F 17.5 °F 22.5 °F 92% 29.46 in 3.0 mi East 5.8 mph - N/A Snow Light Snow
10:54 PM 24.4 °F 20.1 °F 22.5 °F 92% 29.46 in 3.0 mi SE 3.5 mph - N/A Snow Light Snow
11:15 PM 24.4 °F - 22.5 °F 92% 29.45 in 1.8 mi Calm Calm - N/A Snow Light Snow
11:35 PM 24.4 °F - 22.6 °F 93% 29.45 in 2.0 mi Calm Calm - N/A Snow Light Snow
11:54 PM 24.4 °F 20.1 °F 22.6 °F 93% 29.44 in 4.0 mi SE 3.5 mph - N/A Snow Light Snow